Japanese version Home page |
Updated on November 3, 2020 |
Profile
|
Orbital ElementsEpoch 2010 July 23.0 TT = JDT 2455400.5 T 2010 July 7.54866 TT Bell q 1.1983341 (2000.0) P Q n 0.19727452 Peri. 328.52609 -0.33880625 +0.92323262 a 2.9225058 Node 281.13193 -0.82030654 -0.38420704 e 0.5899635 Incl. 10.64518 -0.46076838 +0.00514480 P 5.00 From 93 observations 2005 July 28-2020 Feb. 1, mean residual 0".6.
|
Magnitudes Graphm1 = 19.0 + 5 log d + 10.0 log r
|
The orbital elements are published on M.P.E.C. 2020-C98.
|